Bowling Green, KY

12:51 PM CDT on October 16, 2019 (GMT -0500)
Bowling Green-Warren County Regional

Weather History for KBWG - September, 2019

Change the Weather History Date:

Friday, September 20, 2019

  Actual Average Record
Temperature  
Mean Temperature 79 °F 68 °F  
Max Temperature 89 °F 81 °F 98 °F (1925)
Min Temperature 69 °F 56 °F 40 °F (1903)
Degree Days  
Heating Degree Days 0 1  
Month to date heating degree days 0 7  
Since 1 July heating degree days 0 8  
Cooling Degree Days 14 5  
Month to date cooling degree days 286 150  
Year to date cooling degree days 1762 1419  
Growing Degree Days 30 (Base 50)    
Moisture  
Dew Point 60 °F    
Average Humidity 55    
Maximum Humidity 73    
Minimum Humidity 37    
Precipitation  
Precipitation 0.00 in 0.13 in 3.91 in (1954)
Month to date precipitation T 2.61  
Year to date precipitation 43.00 36.17  
Snow  
Snow 0.00 in 0.00 in 0.00 in ()
Month to date snowfall 0.0 0.0  
Since 1 July snowfall 0.0 0.0  
Since 1 September snowfall 0.0 0.0  
Snow Depth 0.00 in    
Sea Level Pressure  
Sea Level Pressure 30.18 in    
Wind  
Wind Speed 7 mph (South)    
Max Wind Speed 17 mph    
Max Gust Speed 24 mph    
Visibility 10 miles    
Events      
T = Trace of Precipitation, MM = Missing Value Source: NWS Daily Summary

Daily Weather History Graph

Daily Weather History Graph

Search for Another Location

Airport or City:

Astronomy

Sep. 20, 2019 Rise Set
Actual Time 6:31 AM CDT 6:45 PM CDT
Civil Twilight 6:05 AM CDT 7:11 PM CDT
Nautical Twilight 5:35 AM CDT 7:42 PM CDT
Astronomical Twilight 5:04 AM CDT 8:12 PM CDT
Moon 10:43 PM CDT (9/20) 12:27 PM CDT (9/20)
Length of Visible Light 13h 06m
Length of Day
12h 14m
Waning Gibbous, 65% of the Moon is Illuminated
Sep 20
Waning Gibbous
Sep 21
Last Quarter
Sep 28
New
Oct 5
First Quarter
Oct 13
Full

Hourly Weather History & Observations

Time (CDT) Temp. Heat Index Dew Point Humidity Pressure Visibility Wind Dir Wind Speed Gust Speed Precip Events Conditions
12:53 AM 77.0 °F - 63.0 °F 62% 30.11 in 10.0 mi South 10.4 mph - N/A   Mostly Cloudy
1:53 AM 75.9 °F - 61.0 °F 60% 30.12 in 10.0 mi South 10.4 mph - N/A   Clear
2:53 AM 73.9 °F - 61.0 °F 64% 30.13 in 10.0 mi SSW 6.9 mph - N/A   Clear
3:53 AM 73.9 °F - 60.1 °F 62% 30.15 in 10.0 mi SSW 5.8 mph - N/A   Partly Cloudy
4:53 AM 72.0 °F - 59.0 °F 64% 30.16 in 10.0 mi South 5.8 mph - N/A   Clear
5:53 AM 71.1 °F - 59.0 °F 66% 30.17 in 10.0 mi South 6.9 mph - N/A   Partly Cloudy
6:53 AM 71.1 °F - 57.9 °F 63% 30.20 in 10.0 mi SSW 6.9 mph - N/A   Clear
7:53 AM 73.0 °F - 57.9 °F 59% 30.21 in 10.0 mi South 8.1 mph - N/A   Overcast
8:53 AM 75.9 °F - 57.0 °F 52% 30.22 in 10.0 mi SSW 17.3 mph 23.0 mph N/A   Partly Cloudy
9:53 AM 80.1 °F 80.4 °F 57.0 °F 45% 30.22 in 10.0 mi South 15.0 mph 23.0 mph N/A   Clear
10:53 AM 82.0 °F 81.7 °F 57.0 °F 42% 30.22 in 10.0 mi SW 12.7 mph - N/A   Clear
11:53 AM 82.9 °F 82.4 °F 57.0 °F 41% 30.21 in 10.0 mi SW 10.4 mph - N/A   Scattered Clouds
12:53 PM 86.0 °F 85.0 °F 57.9 °F 38% 30.20 in 10.0 mi SSE 11.5 mph - N/A   Clear
1:53 PM 87.1 °F 86.7 °F 60.1 °F 40% 30.18 in 10.0 mi SSW 11.5 mph - N/A   Scattered Clouds
2:53 PM 88.0 °F 87.9 °F 61.0 °F 40% 30.17 in 10.0 mi Variable 3.5 mph - N/A   Scattered Clouds
3:53 PM 87.1 °F 86.7 °F 60.1 °F 40% 30.16 in 10.0 mi Variable 4.6 mph - N/A   Partly Cloudy
4:53 PM 87.1 °F 87.0 °F 61.0 °F 41% 30.15 in 10.0 mi South 8.1 mph - N/A   Clear
5:53 PM 84.0 °F 84.5 °F 62.1 °F 47% 30.15 in 10.0 mi SE 8.1 mph - N/A   Clear
6:53 PM 82.0 °F 83.0 °F 62.1 °F 51% 30.15 in 10.0 mi SSE 4.6 mph - N/A   Clear
7:53 PM 77.0 °F - 63.0 °F 62% 30.17 in 10.0 mi Calm Calm - N/A   Clear
8:53 PM 75.0 °F - 63.0 °F 66% 30.19 in 10.0 mi Calm Calm - N/A   Clear
9:53 PM 73.0 °F - 63.0 °F 71% 30.20 in 10.0 mi East 3.5 mph - N/A   Clear
10:53 PM 72.0 °F - 63.0 °F 73% 30.19 in 10.0 mi East 3.5 mph - N/A   Clear
11:53 PM 71.1 °F - 63.0 °F 75% 30.19 in 10.0 mi Calm Calm - N/A   Clear